Regional Weather Roundup
Issued by NWS

Home | Current Version | Previous Version | Text Only | Print | Product List | Glossary Off
Versions: 1 2 3 4 5 6 7 8 9 10 11 12 13 14 15 16 17 18 19 20 21 22 23 24 25 26 27 28 29 30 31 32 33 34 35 36 37 38 39 40 41 42 43 44 45 46 47 48 49 50

000
ASUS43 KMKX 281121
RWRWI

WISCONSIN REGIONAL WEATHER ROUNDUP
NATIONAL WEATHER SERVICE MILWAUKEE/SULLIVAN WI
500 AM CST WED JAN 28 2015

NOTE: "FAIR" INDICATES FEW OR NO CLOUDS BELOW 12,000 FEET WITH NO
SIGNIFICANT WEATHER AND/OR OBSTRUCTIONS TO VISIBILITY.

WIZ001-002-006>008-014>016-023>028-281200-
NORTHWEST WISCONSIN

CITY           SKY/WX    TMP DP  RH WIND       PRES   REMARKS
SUPERIOR ARPT  CLOUDY    26  21  83 S8        30.07S WCI  17
ASHLAND        PTCLDY    25  20  81 CALM      30.09F
HAYWARD        CLOUDY    24  20  84 S6        30.06F FOG     WCI  17
SIREN          CLOUDY    25  22  86 S7        30.05F WCI  18
CUMBERLAND     CLOUDY    23  21  93 SE10      30.06F WCI  12
RICE LAKE      CLOUDY    25  22  87 SE12      30.09S WCI  14
CHETEK         CLOUDY    24  22  89 SE9       30.09S WCI  15
LADYSMITH      CLOUDY    25  22  89 SE8       30.11F WCI  16
EAU CLAIRE     CLOUDY    25  20  81 S9        30.11S WCI  15
MENOMONIE      CLOUDY    26  23  85 SE13      30.10F WCI  15
NEW RICHMOND   CLOUDY    27  23  87 SE9       30.06F WCI  17
OSCEOLA        CLOUDY    28  25  90 SE9       30.08F WCI  19
$$

WIZ003>005-009-010-017-018-281200-
NORTH CENTRAL WISCONSIN

CITY           SKY/WX    TMP DP  RH WIND       PRES   REMARKS
MANITOWISH WTR CLOUDY    22  22  99 S7        30.09S FOG     WCI  13
ARBOR VITAE    CLOUDY    24  22  93 S6        30.10S FOG     WCI  16
WOODRUFF       CLOUDY    24  22  93 S6        30.10S FOG     WCI  16
RHINELANDER    CLOUDY    22  20  92 S8        30.12S FOG     WCI  12
EAGLE RIVER    CLOUDY    22  20  91 S6        30.10F FOG     WCI  14
LAND O LAKES   CLOUDY    23  21  94 S5        30.11S FOG     WCI  16
PHILLIPS       CLOUDY    23  21  93 S7        30.09F FOG     WCI  14
TOMAHAWK       CLOUDY    22  21  94 CALM      30.12F FOG
MEDFORD        CLOUDY    21  21 100 SE9       30.10F FOG     WCI  11
MERRILL        CLOUDY    23  21  91 SE5       30.13F WCI  17
$$

WIZ029-030-035-036-043>047-281200-
CENTRAL WISCONSIN

CITY           SKY/WX    TMP DP  RH WIND       PRES   REMARKS
WAUSAU         CLOUDY    23  19  85 SE7       30.14S WCI  15
MOSINEE        CLOUDY    23  21  93 SE5       30.16S WCI  17
MARSHFIELD     CLOUDY    25  22  88 S10       30.13F FOG     WCI  15
STEVENS POINT  CLOUDY    23  19  83 S6        30.17S WCI  16
WAUPACA        CLOUDY    26  20  78 SE5       30.20F WCI  20
WAUTOMA        CLOUDY    25  21  84 S7        30.21S WCI  17
WISC RAPIDS    CLOUDY    24  20  84 SE6       30.17F WCI  17
CAMP DOUGLAS   CLOUDY    26  26 100 S7        30.16F WCI  19
$$

WIZ011>013-019>022-031-037>040-048>050-281200-
NORTHEAST WISCONSIN

CITY           SKY/WX    TMP DP  RH WIND       PRES   REMARKS
ANTIGO         CLOUDY    21  18  90 S7        30.15S WCI  12
SHAWANO        CLOUDY    25  19  75 CALM      30.22R
OCONTO         MOCLDY    11  10  95 CALM      30.23S
STURGEON BAY   MOCLDY    18  12  79 S6        30.24F WCI   9
GREEN BAY      MOCLDY    16  14  92 CALM      30.23S
MANITOWOC      PTCLDY    15  12  88 CALM      30.25S
APPLETON       NOT AVBL
CLINTONVILLE   CLOUDY    23  18  80 SE6       30.20S WCI  16
OSHKOSH        CLOUDY    21  16  81 S7        30.21F WCI  12
$$

WIZ032>034-041-042-053>061-281200-
SOUTHWEST WISCONSIN

CITY           SKY/WX    TMP DP  RH WIND       PRES   REMARKS
LA CROSSE      CLOUDY    27  22  81 S9        30.16S WCI  18
SPARTA         CLOUDY    26  23  87 SE6       30.16F FOG     WCI  20
VIROQUA        CLOUDY    24  24 100 S9        30.13F WCI  15
BOSCOBEL       CLOUDY    28  22  78 VRB3      30.19S
PRAIRIE DU CHI CLOUDY    27  22  82 SE8       30.18S WCI  19
PLATTEVILLE    CLOUDY    27  24  89 SE13      30.18R WCI  16
$$

WIZ056-057-062-063-064-067-068-281200-
SOUTH CENTRAL WISCONSIN

CITY           SKY/WX    TMP DP  RH WIND       PRES   REMARKS
REEDSBURG      CLOUDY    25  22  88 SE5       30.18F WCI  19
BARABOO/DELLS  CLOUDY    26  22  87 S9        30.19S FOG     WCI  16
LONE ROCK      CLOUDY    26  21  81 SE6       30.21S HAZE    WCI  19
MINERAL POINT  CLOUDY    27  25  93 S7        30.17R FOG     WCI  19
MADISON        MOCLDY    21  17  84 SE7       30.22R WCI  12
MIDDLETON      MOCLDY    23  18  82 SE5       30.21S WCI  17
WATERTOWN      PTCLDY    20  18  90 CALM      30.23R
MONROE         CLOUDY    23  21  93 SE8       30.19S WCI  14
JANESVILLE     MOCLDY    23  18  80 SE6       30.23R WCI  16
$$

WIZ051-052-058>065-066-070>072-281200-
SOUTHEAST WISCONSIN

CITY           SKY/WX    TMP DP  RH WIND       PRES   REMARKS
MILWAUKEE      PTCLDY    22  15  75 CALM      30.25F
WAUKESHA       PTCLDY    19  18  93 CALM      30.24F
MILWAUKEE/TIMM PTCLDY    23  18  80 CALM      30.25F
RACINE         PTCLDY    20  16  84 CALM      30.27S
BURLINGTON     MOCLDY    19  17  93 CALM      30.24F
KENOSHA        PTCLDY    20  17  88 CALM      30.25S
FOND DU LAC    MOCLDY    22  15  75 S6        30.22S WCI  14
SHEBOYGAN      PTCLDY    20  16  84 CALM      30.24S
WEST BEND      PTCLDY    19  18  93 CALM      30.23S
JUNEAU         MOCLDY    20  17  86 SE6       30.23S WCI  13
$$

LSZ147-162-281200-
LAKE SUPERIOR

STATION/POSITION TIME  TEMP    WIND        PRES    WAVE
                       AIR SEA DIR/SP/G            HT/PER
                 (UTC) (F)     (DEG/KT/KT) (MB)    (FT/S)
DEVILS ISLAND    1100   28     160/  7/  9 1020.0F
PORT WING        1040   26     170/  7/ 10 1018.6F
SAXON HARBOR     1000   28        CALM     1020.0S
$$

LMZ867-665-643>646-281200-
LAKE MICHIGAN

STATION/POSITION TIME  TEMP    WIND        PRES    WAVE
                       AIR SEA DIR/SP/G            HT/PER
                 (UTC) (F)     (DEG/KT/KT) (MB)    (FT/S)
NORTHPORT PIER   1104   16     180/  2/  5 1023.7F
SISTER BAY       1013   19        CALM       N/A
KEWAUNEE LAKESHO 1000   20     280/  1/  3 1023.5F
SHEBOYGAN LAKESH 1100   28     150/  9/ 10 1025.2F
PORT WASHINGTON  1040   23        CALM     1025.1F
MILWAUKEE LAKESH 1100   27     230/  4/  5   N/A
KENOSHA   LAKESH 1100   25        CALM     1024.7S
$$

TC  - TEMPERATURE IN CELSIUS
VSB - VISIBILITY IN STATUTE MILES
WCI - WIND CHILL INDEX
HX  - HEAT INDEX



USA.gov is the U.S. government's official web portal to all federal, state and local government web resources and services.